Temperature
8 8 8 8 8 8 8 8 8 7 7 7 7 7 8 8 8 8 8 8 8 8 8 8 8 7 7 7 7 7 6 6 6 6 6 6 6 6 6 6 6 6 6
8 8 7 7 7 7 7 7 7 7 7 7 7 7 7 7 7 7 7 7 7 7 7 7 7 7 7 6 6 6 6 6 5 5 6 6 5 5 5 5 5 5 5
7 7 7 7 7 7 7 7 7 7 7 7 7 7 6 6 7 7 7 7 7 7 7 7 7 6 6 6 6 6 6 5 5 5 5 5 5 5 5 5 5 5 5
7 6 6 6 6 6 6 6 6 6 6 6 6 6 6 6 6 6 6 6 6 6 6 6 6 6 6 6 6 5 5 5 5 4 4 4 4 4 4 4 4 4 4
6 6 6 6 6 6 6 6 6 6 6 5 5 5 5 5 5 5 5 5 6 6 5 6 5 5 5 5 5 5 4 4 4 4 4 4 4 4 4 4 4 4 4
5 5 5 5 5 5 5 5 5 5 5 5 5 5 5 5 5 5 5 5 5 5 5 5 5 5 5 5 4 4 4 4 3 3 3 3 3 3 3 3 3 3 3
5 5 5 5 4 4 4 4 5 4 4 5 4 4 4 4 4 4 4 4 4 4 4 4 4 4 4 4 4 4 3 3 3 3 3 3 3 3 2 2 2 2 2
4 4 4 4 4 4 4 4 4 4 4 4 4 4 4 4 4 4 3 3 3 4 4 4 4 4 4 3 3 3 3 3 3 2 2 2 2 2 2 2 2 2 2
3 3 3 3 3 3 3 3 3 3 3 3 3 3 3 3 3 3 3 3 3 3 3 3 3 3 3 3 3 2 2 2 2 2 2 2 1 1 1 1 1 1 1
3 3 2 2 2 2 2 2 2 2 2 2 2 3 3 3 3 3 2 2 2 3 3 2 2 2 2 2 2 2 2 2 2 2 1 1 1 1 1 1 0 0 0
2 2 2 2 2 2 2 2 2 2 2 2 2 2 2 2 2 2 2 2 2 2 2 2 2 2 2 1 1 1 1 1 1 1 1 1 1 1 1 0 0 -0 -0
1 1 1 1 1 1 1 1 1 1 1 1 1 1 1 2 1 1 1 1 1 1 1 1 1 1 1 1 1 1 0 0 0 0 0 0 0 0 -0 -0 -0 -0 -0
1 1 1 1 1 1 1 1 1 1 1 1 1 1 1 1 1 1 1 1 1 1 1 1 0 0 0 0 0 -0 -0 -0 -0 -0 -1 -0 -0 -1 -1 -1 -1 -1 -1
0 0 0 0 0 0 0 0 0 0 0 0 -0 -0 0 0 0 0 0 0 0 -0 -0 -0 -0 -0 -0 -0 -0 -0 -1 -1 -1 -1 -1 -1 -1 -1 -1 -1 -1 -1 -1
-0 -0 -0 -0 -0 -0 -0 -0 -0 -0 -0 -1 -1 -1 -1 -1 -1 -1 -1 -1 -1 -1 -1 -1 -1 -1 -1 -1 -1 -1 -1 -1 -2 -2 -2 -2 -2 -2 -2 -2 -2 -2 -2
-1 -1 -1 -1 -1 -1 -1 -1 -1 -1 -1 -1 -1 -1 -1 -1 -1 -1 -1 -2 -2 -2 -2 -2 -2 -2 -2 -1 -1 -2 -2 -2 -2 -2 -2 -2 -2 -2 -2 -2 -2 -2 -2
-1 -1 -1 -1 -2 -2 -2 -2 -2 -2 -2 -2 -2 -2 -2 -2 -2 -2 -2 -2 -2 -2 -2 -2 -2 -2 -2 -2 -2 -2 -2 -2 -2 -3 -3 -3 -3 -3 -3 -3 -3 -3 -3
-2 -2 -2 -2 -2 -2 -2 -2 -2 -2 -2 -2 -2 -2 -2 -2 -3 -3 -3 -3 -3 -3 -3 -3 -3 -3 -3 -3 -3 -3 -3 -3 -3 -3 -3 -3 -3 -3 -3 -3 -3 -3 -3
-2 -2 -2 -3 -3 -3 -3 -3 -3 -3 -3 -3 -3 -3 -3 -3 -3 -3 -4 -4 -3 -3 -3 -3 -3 -3 -3 -3 -3 -3 -3 -3 -3 -3 -3 -3 -3 -4 -4 -3 -3 -4 -4
-3 -3 -3 -3 -3 -3 -3 -3 -3 -4 -4 -4 -3 -3 -4 -4 -4 -4 -4 -4 -4 -4 -4 -3 -3 -3 -3 -3 -4 -4 -4 -4 -3 -4 -4 -4 -4 -4 -4 -4 -4 -4 -4
-3 -3 -4 -4 -4 -4 -4 -4 -4 -4 -4 -4 -4 -4 -4 -5 -5 -5 -4 -4 -4 -4 -4 -4 -4 -4 -4 -4 -4 -4 -4 -4 -4 -4 -4 -4 -4 -4 -4 -4 -4 -4 -4
-4 -4 -4 -4 -4 -4 -4 -4 -5 -5 -5 -5 -5 -5 -5 -5 -5 -5 -5 -5 -5 -4 -4 -4 -4 -4 -4 -4 -4 -4 -4 -4 -4 -4 -4 -4 -4 -4 -4 -4 -4 -4 -4
-4 -4 -5 -5 -5 -5 -5 -5 -5 -5 -5 -5 -5 -5 -5 -5 -5 -5 -5 -5 -5 -5 -5 -5 -4 -4 -4 -4 -4 -4 -4 -4 -4 -4 -4 -4 -4 -4 -5 -4 -4 -4 -4
-5 -5 -5 -5 -5 -5 -5 -5 -5 -5 -5 -5 -6 -6 -6 -6 -6 -6 -5 -5 -5 -5 -5 -5 -5 -5 -4 -4 -4 -4 -4 -4 -4 -4 -4 -4 -5 -5 -5 -5 -4 -4 -4
-5 -5 -5 -5 -6 -6 -6 -6 -6 -6 -6 -6 -6 -6 -6 -6 -6 -6 -6 -6 -6 -5 -5 -5 -5 -5 -5 -4 -4 -4 -4 -4 -4 -5 -5 -5 -5 -5 -5 -5 -5 -5 -5
-6 -6 -6 -6 -6 -6 -6 -6 -6 -6 -6 -6 -6 -6 -6 -6 -6 -6 -6 -6 -6 -6 -5 -5 -5 -5 -5 -5 -5 -5 -5 -5 -5 -5 -5 -5 -5 -5 -5 -5 -5 -5 -5
Wind_Speed
2 1 1 1 1 1 2 3 3 2 2 2 3 2 2 2 2 3 3 3 3 3 3 3 3 2 2 2 2 2 2 3 4 3 2 2 2 3 4 6 7 7 8
1 1 1 1 1 2 2 2 3 3 2 2 2 2 2 2 2 3 4 3 3 3 3 3 3 2 2 2 2 2 3 3 3 5 3 2 2 3 3 4 5 6 7
2 1 1 1 1 2 2 2 2 2 2 2 2 3 3 3 3 3 3 4 4 4 4 4 3 3 3 2 2 2 2 2 2 3 4 2 2 2 3 3 4 4 6
2 2 2 2 2 2 2 2 2 2 3 3 3 3 3 3 3 3 3 4 4 4 4 4 4 4 4 4 3 3 3 2 2 2 3 3 2 2 2 3 4 3 4
2 2 3 2 2 1 1 2 1 2 2 3 2 2 2 3 3 3 3 4 4 4 3 3 4 5 5 4 3 3 3 2 2 2 3 3 3 2 2 2 4 4 4
3 3 2 2 1 1 1 2 1 1 2 2 2 2 2 3 4 5 4 4 4 4 4 3 3 4 5 5 5 5 5 4 4 3 4 4 5 4 3 3 3 3 4
3 2 2 2 2 2 1 2 2 2 2 2 2 2 3 4 5 5 6 4 4 4 4 4 3 3 4 3 4 4 5 6 7 5 5 6 5 4 4 4 4 4 5
2 2 2 2 2 2 2 2 3 3 3 3 3 3 3 4 5 5 5 4 4 4 4 4 4 4 4 3 3 2 3 4 5 4 5 6 6 5 5 5 5 4 4
3 3 3 3 3 3 3 3 3 3 3 3 3 3 4 4 5 6 5 3 3 4 4 4 5 5 6 6 3 3 4 4 5 6 6 6 8 8 5 2 2 3 5
4 4 4 4 4 4 5 4 3 3 4 4 4 4 4 4 6 7 6 3 4 4 3 4 6 6 7 7 4 4 5 5 4 3 4 5 4 5 6 4 4 4 4
4 3 3 4 4 4 4 3 3 3 3 3 4 4 4 5 6 7 7 3 4 4 4 4 4 7 8 9 7 5 8 6 4 4 3 3 3 3 4 4 4 5 5
3 3 3 4 3 3 3 3 3 3 3 4 3 4 4 4 6 6 8 7 6 5 5 4 5 8 9 9 7 7 9 7 3 3 3 4 4 4 4 4 4 5 6
3 3 4 4 3 3 4 4 3 3 3 3 3 4 4 4 5 8 8 9 9 6 5 7 8 9 9 7 8 9 8 5 4 4 5 5 5 5 4 3 3 3 4
3 4 3 4 4 4 3 4 4 4 4 4 4 5 5 4 4 4 4 5 6 6 5 7 8 8 7 7 7 6 5 5 5 6 5 5 4 4 4 4 4 3 3
3 3 3 4 4 4 4 4 5 5 6 6 5 5 5 6 7 9 6 5 4 5 4 3 3 3 4 4 4 4 4 5 6 5 5 5 5 5 5 4 3 4 4
4 4 3 3 3 3 4 4 6 7 9 10 9 8 7 9 11 11 11 11 11 10 6 5 6 6 6 6 6 5 5 6 6 6 6 6 6 6 5 4 4 5 6
4 4 3 3 3 4 4 4 5 6 7 8 10 10 10 11 12 12 12 12 12 11 7 6 6 7 7 6 6 6 6 6 6 6 6 6 6 6 5 5 5 5 6
5 5 4 4 4 4 4 5 5 5 6 5 7 10 11 11 11 11 11 9 7 7 6 7 7 7 7 7 7 7 6 6 6 6 7 6 6 6 6 6 6 6 6
5 4 4 4 4 4 5 5 5 6 6 6 5 6 9 10 11 11 10 6 6 6 6 7 7 7 7 7 7 7 7 7 7 7 7 7 7 6 7 7 7 8 7
4 6 6 4 4 4 4 5 5 5 6 6 6 6 5 5 5 6 6 6 6 7 7 7 7 7 7 7 7 7 7 7 7 7 7 7 7 7 8 8 7 7 6
4 5 6 5 5 5 5 5 6 6 6 7 7 8 10 7 7 7 7 7 7 7 7 7 7 7 7 7 7 8 8 8 7 7 7 7 7 7 7 7 7 7 6
4 4 4 5 5 5 6 6 6 6 7 8 8 8 12 8 7 7 7 8 7 7 7 7 7 7 7 7 7 7 8 8 8 7 7 7 7 7 6 6 6 6 6
4 5 5 5 5 8 8 6 6 7 7 8 8 7 7 7 7 7 8 7 7 7 6 6 7 7 7 7 7 7 8 8 8 8 8 7 7 7 6 7 7 6 6
5 5 6 6 6 6 6 6 7 7 7 8 7 7 7 7 8 8 7 7 7 6 6 6 7 9 10 8 7 8 8 9 9 8 9 8 7 6 6 6 6 7 6
5 5 6 6 6 6 6 7 7 7 8 8 8 8 7 7 8 8 7 7 7 7 8 7 7 8 9 10 9 8 10 12 11 8 8 7 7 7 7 7 6 6 5
5 6 6 5 6 6 6 7 7 8 8 8 8 8 8 8 8 8 7 6 7 7 7 7 8 9 9 9 10 11 12 12 11 10 7 6 6 6 6 6 7 6 6
Wind_Direction
199 205 201 221 226 198 186 197 194 195 193 195 209 209 208 200 187 189 195 190 188 199 199 194 213 202 193 202 194 193 204 201 243 270 256 272 274 288 304 305 304 303 301
201 190 211 231 195 186 189 196 191 192 196 193 201 207 218 217 204 195 193 194 194 201 207 196 222 212 205 210 205 212 220 215 224 262 278 281 274 277 286 295 301 301 297
173 161 180 220 200 192 192 193 191 191 195 191 191 210 223 227 219 211 198 199 203 208 208 202 214 206 221 222 216 221 232 236 222 244 272 277 283 279 294 294 292 296 296
176 174 192 219 221 210 194 185 195 194 194 202 205 214 218 224 224 222 214 212 213 220 218 212 214 212 219 221 223 223 224 229 231 247 273 285 284 284 287 293 302 300 297
182 192 214 223 213 191 183 187 190 189 197 202 205 218 225 225 226 223 223 219 215 223 227 222 221 226 230 228 228 219 210 220 231 248 268 283 281 281 272 272 288 301 295
194 204 206 199 191 202 214 197 191 206 213 199 203 219 233 249 257 245 229 219 218 218 227 234 232 232 241 248 247 238 223 219 227 238 258 261 267 263 264 267 279 301 296
209 214 205 197 199 219 222 205 209 220 223 223 223 222 240 258 270 269 253 228 218 220 220 224 241 245 251 236 255 263 258 257 247 240 245 251 252 244 244 261 265 268 268
216 230 228 220 217 222 218 227 234 228 224 231 233 231 239 256 268 273 265 235 216 222 223 222 226 235 237 231 230 249 256 262 261 250 240 246 246 240 232 244 255 270 274
230 235 233 224 221 222 231 244 247 233 236 237 233 231 238 257 266 270 268 222 221 233 232 226 226 228 246 251 234 240 261 270 275 266 265 263 262 261 247 237 251 272 282
241 238 232 222 220 223 231 242 249 239 238 241 239 232 233 248 266 272 269 227 228 238 239 236 242 244 251 254 233 229 250 259 255 269 275 280 274 263 256 237 227 247 263
256 247 241 232 228 227 230 237 244 247 245 244 248 251 243 248 263 268 265 238 229 235 241 244 244 257 260 260 253 238 248 255 241 239 250 259 264 257 252 243 226 223 238
263 251 250 247 244 240 232 245 247 244 249 252 253 264 256 253 260 264 264 258 252 238 242 242 243 256 260 261 258 253 258 261 241 239 249 255 257 256 254 248 241 234 232
263 255 253 256 252 242 233 239 249 246 245 252 247 257 266 259 258 265 267 266 264 256 247 247 251 257 258 256 253 255 257 244 232 240 246 250 244 241 247 255 256 249 254
259 265 262 257 255 252 244 234 232 236 242 247 247 252 263 263 256 251 250 260 265 267 261 255 258 260 258 253 254 254 242 236 235 238 244 246 239 235 241 240 248 251 260
259 260 262 256 251 254 250 240 236 235 234 240 243 241 249 263 263 262 259 252 244 247 252 248 243 245 245 247 245 242 238 239 245 240 241 245 243 243 247 237 234 239 245
259 260 258 258 258 255 259 273 258 251 262 262 260 257 259 261 271 271 270 268 265 259 258 244 243 242 243 244 244 246 240 236 236 236 238 240 241 242 246 240 234 238 249
253 259 259 257 256 257 257 263 281 285 272 269 269 269 268 272 273 272 272 272 269 264 256 245 243 241 242 240 239 242 245 241 234 232 235 237 239 241 241 244 242 245 250
261 259 257 255 255 255 255 256 258 268 281 284 279 276 276 276 275 275 274 278 269 259 244 243 245 244 243 242 241 243 246 243 237 235 234 233 232 236 241 243 241 243 248
264 260 255 254 253 254 255 255 256 258 263 272 278 280 279 281 280 277 273 260 256 254 247 245 245 245 244 241 241 241 241 241 237 234 233 232 230 232 239 240 240 240 243
266 262 263 261 258 258 256 256 260 261 264 266 267 269 272 274 270 269 258 248 251 256 253 251 249 244 241 240 239 239 240 239 235 235 235 233 230 231 235 235 235 238 241
268 266 265 264 256 254 254 253 254 257 261 264 264 265 269 265 262 261 258 252 249 251 253 253 251 246 243 240 238 238 238 241 237 234 233 232 230 233 234 232 231 233 236
264 264 261 259 260 257 258 253 253 256 259 265 270 271 273 268 261 260 258 255 251 249 249 252 252 246 239 236 236 238 240 240 237 233 232 231 230 229 230 229 228 230 227
262 264 267 264 262 266 270 260 257 258 260 262 267 269 267 261 261 260 259 257 255 255 253 250 250 250 244 238 234 234 238 239 235 231 230 230 227 225 227 227 222 224 226
259 261 264 266 266 263 263 264 263 264 264 265 265 264 263 262 262 262 260 260 259 258 255 250 250 248 247 245 242 238 237 237 233 230 224 224 223 222 222 222 219 217 220
259 260 262 263 266 268 269 269 268 267 267 268 267 266 264 262 262 263 261 260 259 260 258 254 253 251 249 246 246 244 245 244 239 230 221 216 216 217 219 217 215 213 216
261 260 262 264 265 267 268 270 271 270 269 269 267 265 264 263 262 261 260 258 259 259 260 258 253 251 251 249 249 248 248 247 242 233 221 210 213 216 212 214 208 209 209
Height
1475 1475 1475 1474 1474 1474 1474 1475 1476 1477 1478 1479 1480 1480 1480 1481 1481 1482 1483 1484 1485 1486 1487 1487 1488 1488 1489 1489 1490 1490 1491 1491 1489 1488 1489 1489 1488 1488 1487 1486 1485 1484 1483
1473 1473 1472 1472 1471 1471 1471 1472 1473 1474 1475 1476 1477 1477 1477 1477 1477 1478 1479 1480 1480 1482 1482 1483 1484 1484 1484 1485 1486 1486 1486 1486 1486 1484 1484 1484 1484 1483 1482 1482 1481 1480 1478
1470 1470 1470 1469 1468 1468 1468 1469 1470 1471 1472 1473 1473 1474 1473 1474 1474 1474 1474 1476 1477 1478 1479 1479 1480 1480 1481 1481 1481 1482 1482 1482 1482 1480 1479 1479 1479 1479 1478 1477 1476 1475 1474
1467 1467 1467 1466 1466 1465 1465 1466 1467 1468 1468 1469 1470 1470 1470 1470 1470 1470 1470 1472 1472 1474 1474 1475 1475 1476 1476 1477 1477 1477 1477 1477 1477 1476 1475 1474 1474 1474 1473 1472 1471 1471 1470
1463 1463 1463 1463 1463 1463 1463 1464 1464 1464 1465 1465 1466 1466 1466 1466 1466 1466 1466 1467 1468 1469 1470 1470 1470 1471 1472 1472 1472 1472 1472 1472 1472 1471 1470 1470 1469 1469 1469 1468 1467 1465 1464
1460 1460 1460 1460 1460 1460 1460 1461 1461 1461 1461 1461 1462 1462 1462 1462 1462 1462 1463 1463 1464 1464 1464 1465 1466 1467 1467 1467 1467 1467 1468 1467 1466 1466 1465 1465 1464 1465 1464 1464 1462 1461 1459
1456 1456 1456 1457 1456 1457 1457 1457 1457 1457 1458 1458 1458 1458 1458 1458 1458 1458 1458 1459 1459 1459 1460 1460 1461 1461 1461 1461 1462 1462 1462 1463 1463 1462 1461 1460 1460 1460 1460 1459 1458 1456 1455
1453 1453 1453 1453 1453 1453 1453 1453 1453 1454 1454 1453 1454 1454 1454 1454 1454 1454 1455 1454 1454 1454 1455 1455 1455 1455 1456 1456 1456 1456 1456 1457 1457 1456 1456 1455 1456 1456 1455 1455 1453 1451 1450
1449 1449 1449 1449 1449 1449 1449 1449 1449 1449 1449 1449 1449 1449 1449 1449 1450 1450 1450 1450 1449 1450 1450 1450 1450 1450 1450 1451 1451 1450 1450 1451 1451 1451 1450 1450 1451 1450 1450 1450 1448 1447 1444
1445 1445 1445 1445 1445 1445 1444 1444 1444 1444 1444 1444 1444 1444 1445 1445 1445 1445 1445 1445 1444 1444 1444 1445 1445 1445 1445 1445 1445 1445 1444 1444 1445 1444 1445 1445 1445 1445 1444 1444 1443 1442 1440
1441 1440 1440 1441 1441 1440 1440 1440 1440 1439 1439 1439 1439 1439 1440 1440 1440 1440 1440 1440 1439 1439 1438 1439 1439 1439 1439 1439 1439 1439 1439 1439 1439 1438 1438 1438 1439 1439 1439 1439 1438 1437 1436
1437 1436 1436 1436 1436 1436 1435 1435 1435 1435 1434 1434 1434 1434 1434 1435 1435 1435 1435 1434 1434 1434 1433 1433 1433 1433 1434 1434 1434 1433 1434 1433 1433 1432 1432 1432 1432 1432 1433 1433 1432 1431 1430
1433 1432 1432 1431 1431 1431 1431 1431 1431 1430 1430 1429 1429 1428 1428 1429 1429 1429 1429 1429 1429 1428 1427 1427 1427 1428 1428 1427 1427 1427 1428 1427 1427 1426 1425 1426 1427 1427 1427 1426 1425 1424 1423
1428 1428 1428 1427 1427 1427 1427 1426 1426 1425 1425 1424 1424 1423 1423 1423 1423 1423 1423 1423 1422 1422 1422 1421 1422 1422 1422 1421 1421 1421 1421 1421 1421 1420 1420 1420 1420 1420 1420 1420 1419 1418 1417
1425 1424 1424 1423 1423 1422 1422 1422 1421 1421 1421 1420 1419 1418 1418 1417 1417 1417 1417 1416 1416 1416 1416 1415 1415 1415 1415 1415 1414 1414 1414 1414 1414 1414 1414 1414 1414 1414 1413 1413 1413 1412 1411
1421 1420 1419 1419 1418 1418 1417 1416 1416 1416 1415 1415 1414 1413 1412 1412 1412 1411 1411 1411 1410 1410 1410 1408 1408 1408 1408 1407 1407 1407 1407 1407 1407 1408 1407 1407 1407 1407 1407 1407 1406 1406 1404
1416 1416 1415 1415 1414 1413 1412 1411 1410 1410 1409 1409 1408 1407 1407 1406 1406 1405 1405 1404 1404 1404 1403 1402 1401 1401 1401 1401 1400 1400 1400 1400 1401 1401 1401 1401 1401 1400 1400 1400 1400 1399 1398
1412 1411 1411 1410 1409 1408 1407 1407 1406 1404 1403 1402 1402 1401 1401 1400 1399 1399 1399 1398 1397 1396 1396 1395 1395 1394 1394 1393 1393 1393 1393 1393 1393 1393 1393 1394 1394 1394 1393 1393 1393 1393 1392
1407 1406 1405 1404 1404 1403 1402 1401 1400 1399 1397 1396 1395 1394 1394 1393 1392 1392 1391 1391 1389 1389 1389 1388 1388 1387 1387 1386 1386 1386 1386 1386 1386 1386 1386 1386 1387 1387 1386 1386 1386 1386 1386
1401 1400 1400 1399 1398 1397 1396 1395 1394 1393 1391 1390 1388 1388 1387 1386 1385 1384 1384 1383 1383 1382 1381 1381 1380 1380 1379 1379 1379 1379 1379 1379 1379 1379 1379 1379 1379 1380 1379 1379 1380 1380 1380
1396 1394 1394 1393 1392 1391 1390 1389 1388 1386 1385 1383 1382 1382 1381 1380 1378 1377 1377 1376 1375 1375 1374 1374 1373 1372 1372 1372 1371 1371 1371 1371 1371 1371 1371 1372 1372 1373 1373 1373 1373 1374 1374
1390 1389 1388 1387 1386 1385 1383 1382 1381 1380 1378 1377 1375 1375 1374 1373 1372 1370 1369 1369 1368 1368 1367 1366 1365 1365 1365 1364 1364 1364 1363 1363 1363 1364 1364 1365 1365 1366 1366 1367 1367 1368 1368
1384 1383 1382 1381 1380 1378 1377 1376 1375 1373 1372 1370 1369 1368 1367 1366 1364 1363 1362 1362 1361 1360 1360 1359 1358 1358 1358 1358 1357 1357 1356 1356 1357 1357 1357 1358 1358 1359 1360 1360 1361 1362 1363
1378 1377 1376 1375 1373 1372 1371 1369 1368 1366 1365 1363 1362 1361 1360 1358 1357 1356 1356 1355 1354 1353 1353 1352 1351 1351 1351 1350 1350 1350 1350 1350 1350 1350 1351 1351 1352 1353 1354 1354 1355 1356 1357
1372 1371 1370 1369 1367 1366 1364 1363 1361 1360 1358 1357 1355 1354 1353 1351 1350 1349 1348 1348 1347 1346 1345 1345 1344 1344 1344 1344 1343 1343 1343 1343 1344 1344 1345 1345 1346 1347 1348 1349 1350 1351 1353
1366 1365 1364 1362 1361 1359 1358 1356 1354 1353 1351 1350 1348 1347 1346 1344 1343 1342 1341 1340 1340 1339 1338 1338 1337 1337 1337 1337 1337 1337 1337 1337 1338 1338 1339 1340 1341 1342 1343 1344 1345 1346 1348